TimeCST,TemperatureF,Dew PointF,Humidity,Sea Level PressureIn,VisibilityMPH,Wind Direction,Wind SpeedMPH,Gust SpeedMPH,PrecipitationIn,Events,Conditions,WindDirDegrees,DateUTC
12:15 AM,13.5,5.9,72,30.74,10.0,WNW,5.8,-,N/A,,Scattered Clouds,300,2013-11-12 06:15:00
12:36 AM,13.6,6.4,73,30.75,10.0,WNW,5.8,-,N/A,,Overcast,300,2013-11-12 06:36:00
12:56 AM,13.6,6.8,74,30.75,10.0,WNW,6.9,-,N/A,,Overcast,290,2013-11-12 06:56:00
1:15 AM,13.5,6.8,75,30.74,10.0,WNW,5.8,-,N/A,,Overcast,290,2013-11-12 07:15:00
1:36 AM,13.1,6.8,76,30.74,10.0,WNW,6.9,-,N/A,,Mostly Cloudy,290,2013-11-12 07:36:00
1:56 AM,12.9,6.8,77,30.74,10.0,WNW,4.6,-,N/A,,Scattered Clouds,300,2013-11-12 07:56:00
2:15 AM,12.4,6.8,78,30.75,10.0,WNW,6.9,-,N/A,,Clear,300,2013-11-12 08:15:00
2:36 AM,12.2,6.4,78,30.75,10.0,WNW,5.8,-,N/A,,Clear,300,2013-11-12 08:36:00
2:56 AM,12.2,6.3,77,30.76,10.0,WNW,5.8,-,N/A,,Clear,300,2013-11-12 08:56:00
3:16 AM,12.2,6.3,77,30.76,10.0,NW,4.6,-,N/A,,Clear,310,2013-11-12 09:16:00
3:36 AM,11.8,6.3,78,30.76,10.0,WNW,3.5,-,N/A,,Clear,290,2013-11-12 09:36:00
3:56 AM,11.8,6.3,78,30.76,10.0,WNW,3.5,-,N/A,,Clear,290,2013-11-12 09:56:00
4:16 AM,11.8,6.3,78,30.77,10.0,WNW,3.5,-,N/A,,Clear,300,2013-11-12 10:16:00
4:36 AM,11.7,5.9,78,30.77,10.0,WNW,3.5,-,N/A,,Clear,290,2013-11-12 10:36:00
4:56 AM,11.5,5.9,78,30.76,10.0,West,5.8,-,N/A,,Clear,280,2013-11-12 10:56:00
5:16 AM,11.8,6.4,79,30.76,10.0,West,5.8,-,N/A,,Clear,280,2013-11-12 11:16:00
5:36 AM,11.8,6.4,79,30.77,10.0,WNW,6.9,-,N/A,,Clear,290,2013-11-12 11:36:00
5:55 AM,11.8,6.1,78,30.77,10.0,WNW,5.8,-,N/A,,Clear,290,2013-11-12 11:55:00
6:16 AM,11.7,5.9,78,30.77,10.0,WNW,4.6,-,N/A,,Clear,290,2013-11-12 12:16:00
6:36 AM,11.8,5.9,77,30.77,10.0,West,4.6,-,N/A,,Clear,280,2013-11-12 12:36:00
6:55 AM,12.0,5.9,76,30.77,10.0,WNW,4.6,-,N/A,,Clear,290,2013-11-12 12:55:00
7:16 AM,12.0,6.8,80,30.76,10.0,WNW,4.6,-,N/A,,Clear,290,2013-11-12 13:16:00
7:36 AM,12.2,7.7,82,30.76,10.0,West,4.6,-,N/A,,Clear,260,2013-11-12 13:36:00
7:55 AM,12.4,7.9,82,30.76,10.0,Calm,Calm,-,N/A,,Clear,0,2013-11-12 13:55:00
8:16 AM,12.0,8.4,85,30.77,10.0,Calm,Calm,-,N/A,,Clear,0,2013-11-12 14:16:00
8:36 AM,14.0,9.7,83,30.77,10.0,West,6.9,-,N/A,,Clear,260,2013-11-12 14:36:00
8:55 AM,14.9,9.9,80,30.77,10.0,West,6.9,-,N/A,,Clear,260,2013-11-12 14:55:00
9:16 AM,16.3,10.8,79,30.76,10.0,WSW,5.8,-,N/A,,Clear,250,2013-11-12 15:16:00
9:36 AM,17.4,10.8,75,30.77,10.0,WSW,5.8,-,N/A,,Clear,240,2013-11-12 15:36:00
9:56 AM,18.3,9.9,70,30.76,10.0,SW,4.6,-,N/A,,Clear,230,2013-11-12 15:56:00
10:16 AM,19.6,10.2,67,30.75,10.0,SW,5.8,-,N/A,,Clear,220,2013-11-12 16:16:00
10:35 AM,20.5,8.6,60,30.75,10.0,SSW,5.8,-,N/A,,Clear,210,2013-11-12 16:35:00
10:56 AM,21.6,8.2,57,30.74,10.0,WSW,6.9,-,N/A,,Clear,250,2013-11-12 16:56:00
11:16 AM,22.1,8.4,56,30.73,10.0,SSW,8.1,-,N/A,,Clear,210,2013-11-12 17:16:00
11:35 AM,23.0,9.5,56,30.73,10.0,SW,10.4,-,N/A,,Clear,230,2013-11-12 17:35:00
11:56 AM,23.7,9.1,54,30.73,10.0,SW,6.9,-,N/A,,Clear,230,2013-11-12 17:56:00
12:15 PM,23.9,8.4,52,30.72,10.0,WSW,6.9,-,N/A,,Clear,250,2013-11-12 18:15:00
12:36 PM,25.2,8.6,50,30.70,10.0,WSW,6.9,-,N/A,,Clear,240,2013-11-12 18:36:00
12:56 PM,25.5,8.4,48,30.69,10.0,WSW,9.2,-,N/A,,Clear,240,2013-11-12 18:56:00
1:15 PM,26.1,8.6,48,30.68,10.0,South,8.1,-,N/A,,Clear,190,2013-11-12 19:15:00
1:36 PM,26.2,8.8,48,30.66,10.0,South,5.8,-,N/A,,Clear,190,2013-11-12 19:36:00
1:56 PM,26.6,7.9,45,30.65,10.0,SSW,6.9,-,N/A,,Clear,200,2013-11-12 19:56:00
2:15 PM,27.3,8.6,45,30.65,10.0,SSW,5.8,-,N/A,,Clear,200,2013-11-12 20:15:00
2:36 PM,27.5,7.9,44,30.64,10.0,SSW,6.9,-,N/A,,Clear,200,2013-11-12 20:36:00
2:56 PM,27.7,8.4,44,30.63,10.0,SW,6.9,-,N/A,,Clear,220,2013-11-12 20:56:00
3:15 PM,27.9,7.7,43,30.62,10.0,SSW,9.2,-,N/A,,Clear,210,2013-11-12 21:15:00
3:36 PM,28.0,8.8,44,30.62,10.0,SSW,6.9,-,N/A,,Clear,200,2013-11-12 21:36:00
3:56 PM,27.9,9.3,46,30.62,10.0,SW,4.6,-,N/A,,Clear,220,2013-11-12 21:56:00
4:15 PM,27.3,9.3,47,30.62,10.0,SW,6.9,-,N/A,,Clear,220,2013-11-12 22:15:00
4:36 PM,26.6,10.0,50,30.62,10.0,SSW,5.8,-,N/A,,Clear,210,2013-11-12 22:36:00
4:56 PM,26.4,9.7,49,30.60,10.0,South,3.5,-,N/A,,Clear,190,2013-11-12 22:56:00
5:16 PM,25.9,10.4,52,30.58,10.0,South,3.5,-,N/A,,Clear,190,2013-11-12 23:16:00
5:36 PM,25.3,10.9,54,30.58,10.0,South,4.6,-,N/A,,Clear,180,2013-11-12 23:36:00
5:55 PM,24.8,11.7,57,30.56,10.0,South,6.9,-,N/A,,Clear,180,2013-11-12 23:55:00
6:16 PM,24.8,12.0,58,30.58,10.0,SSW,5.8,-,N/A,,Clear,200,2013-11-13 00:16:00
6:36 PM,24.6,12.0,59,30.57,10.0,South,4.6,-,N/A,,Clear,180,2013-11-13 00:36:00
6:55 PM,24.3,11.8,59,30.55,10.0,South,5.8,-,N/A,,Clear,180,2013-11-13 00:55:00
7:16 PM,23.7,12.2,61,30.54,10.0,South,8.1,-,N/A,,Clear,180,2013-11-13 01:16:00
7:36 PM,23.7,12.9,63,30.53,10.0,South,6.9,-,N/A,,Clear,190,2013-11-13 01:36:00
7:55 PM,23.0,12.7,65,30.52,10.0,South,6.9,-,N/A,,Clear,190,2013-11-13 01:55:00
8:16 PM,22.8,12.9,66,30.51,10.0,South,8.1,-,N/A,,Clear,180,2013-11-13 02:16:00
8:36 PM,22.5,13.5,68,30.50,10.0,South,6.9,-,N/A,,Clear,190,2013-11-13 02:36:00
8:55 PM,22.1,14.0,71,30.50,10.0,South,5.8,-,N/A,,Clear,190,2013-11-13 02:55:00
9:16 PM,22.1,14.2,72,30.50,10.0,South,3.5,-,N/A,,Clear,180,2013-11-13 03:16:00
9:36 PM,22.1,14.2,72,30.49,10.0,South,5.8,-,N/A,,Clear,190,2013-11-13 03:36:00
9:55 PM,21.9,14.2,72,30.48,10.0,South,4.6,-,N/A,,Clear,190,2013-11-13 03:55:00
10:16 PM,21.9,14.2,72,30.47,10.0,South,3.5,-,N/A,,Clear,170,2013-11-13 04:16:00
10:36 PM,21.6,14.0,73,30.46,10.0,South,5.8,-,N/A,,Clear,180,2013-11-13 04:36:00
10:55 PM,21.4,14.0,73,30.45,10.0,South,4.6,-,N/A,,Clear,170,2013-11-13 04:55:00
11:16 PM,21.2,14.0,74,30.43,10.0,South,8.1,-,N/A,,Clear,170,2013-11-13 05:16:00
11:35 PM,21.6,14.4,74,30.42,10.0,South,6.9,-,N/A,,Clear,180,2013-11-13 05:35:00
11:56 PM,21.6,14.4,74,30.41,10.0,South,4.6,-,N/A,,Clear,190,2013-11-13 05:56:00